weather.gov     
National Weather Service

Terminal Aerodrome Forecast
NWS Homepage
This page is being discontinued on March 12, 2014.
The same data is available at this site. Please update your bookmarks.
Thank you, and we apologize for the inconvenience.
Please send an email to SR-SRH.Webmaster@noaa.gov with any concerns.


Current Version
Previous Version:    01  02  03  04  05  06  07  08  09  10  11  12  13  14  15  16  17  18  19  20  21  22  23  24  25  
[Printable]
772
FTUS46 KPQR 212341
TAFTTD
TAF
KTTD 212341Z 2200/2224 19004KT P6SM -SHRA SCT035 BKN045 OVC060
     FM220600 10010KT P6SM -RA BKN045 OVC070
     FM221700 16012KT 5SM -RA OVC035=




772
FTUS46 KPQR 212341
TAFTTD
TAF
KTTD 212341Z 2200/2224 19004KT P6SM -SHRA SCT035 BKN045 OVC060
     FM220600 10010KT P6SM -RA BKN045 OVC070
     FM221700 16012KT 5SM -RA OVC035=


U.S. Dept. of Commerce
NOAA National Weather Service
1325 East West Highway
Silver Spring, MD 20910
E-mail: w-nws.webmaster@noaa.gov
Page last modified: May 16, 2007
NATIONAL WEATHER SERVICE: for Safety, for Work, for Fun - FOR LIFE